Theta_e
323 323 322 321 322 321 323 322 322 323 324 322 322 323 325 326 326 320 315 321 321 326 325 319 321 318 316 312 309 303 294 292 295 297 298 301 302 303 307 309 312 316 313 317 317
323 322 323 322 322 321 323 322 322 323 323 322 321 321 325 325 315 312 323 330 331 328 316 314 311 314 309 308 307 305 295 295 300 301 300 302 303 303 303 305 309 313 317 317 318
322 322 322 322 321 321 322 322 321 323 322 322 322 321 324 321 303 305 325 330 332 327 317 316 316 312 304 305 305 301 298 300 300 303 304 304 303 305 302 301 308 306 309 313 314
322 321 321 321 321 321 322 322 322 323 322 322 322 320 323 311 284 308 326 327 331 321 318 315 311 307 306 302 304 299 303 302 303 305 304 304 306 304 304 306 308 306 310 315 314
321 320 320 320 320 321 322 322 322 322 322 322 322 321 314 303 302 313 324 327 326 318 314 312 311 306 302 302 303 299 302 306 306 307 306 306 305 304 303 307 307 310 315 315 316
320 320 320 319 320 320 321 321 321 322 322 321 321 321 306 293 309 315 314 323 320 315 314 314 311 310 306 302 301 303 304 304 306 306 307 304 304 304 305 305 307 313 314 315 317
320 319 319 319 319 319 320 320 321 320 320 321 321 315 305 299 313 313 319 317 320 315 309 313 315 311 307 300 304 302 299 302 303 304 303 304 300 300 307 306 305 311 312 315 317
319 319 319 319 319 319 319 319 319 319 319 320 320 309 297 309 310 310 312 313 316 316 313 314 314 309 304 304 304 302 302 295 300 304 304 303 294 300 307 302 301 302 309 314 316
318 318 318 318 318 318 319 319 319 319 319 319 309 303 295 313 306 308 312 310 312 314 317 318 312 304 305 300 295 297 290 293 297 304 302 300 294 301 307 302 301 301 303 311 314
317 318 318 318 318 318 317 318 318 317 314 312 309 299 300 299 305 309 310 311 308 311 308 307 305 297 299 294 286 288 291 291 293 299 300 296 297 300 303 301 302 305 301 307 311
316 317 318 318 318 318 315 309 301 299 304 296 296 294 298 304 309 306 308 309 308 307 298 302 296 291 296 296 294 291 289 289 292 298 298 297 298 300 302 302 301 302 301 303 310
315 316 318 318 318 318 311 298 298 298 293 298 298 299 303 307 299 305 309 301 300 295 296 296 292 295 296 296 297 294 291 290 293 298 298 297 296 300 302 302 303 303 304 303 305
314 315 316 317 317 314 305 300 304 301 289 294 298 297 300 303 296 299 305 299 294 292 294 289 290 298 297 296 294 294 294 293 292 295 298 297 295 297 301 303 304 305 306 307 304
313 314 315 317 311 309 302 304 304 296 281 285 292 295 299 300 294 303 306 299 294 291 291 291 294 293 291 292 295 291 298 297 295 293 288 297 286 294 297 300 303 304 305 306 306
311 312 315 315 310 303 304 304 302 296 271 285 290 300 299 294 294 299 305 299 291 291 291 285 289 289 289 290 294 292 297 296 296 293 291 291 287 291 296 296 299 302 305 307 309
309 310 314 312 311 308 307 305 299 280 271 282 289 290 292 292 291 300 300 301 297 293 292 290 293 291 291 292 293 295 293 292 291 290 282 289 288 288 292 296 299 303 305 307 307
309 310 310 312 304 309 306 298 281 274 281 281 284 289 288 288 289 292 292 291 287 284 284 286 287 289 292 291 291 292 289 281 279 280 279 287 286 289 294 300 302 303 304 306 307
307 308 308 309 311 308 301 287 276 277 276 284 285 288 283 287 286 288 289 286 290 284 281 280 274 287 291 291 289 290 290 282 272 274 278 284 284 289 297 301 302 303 304 305 306
307 302 303 306 311 305 292 280 278 280 281 283 285 282 282 285 284 284 286 286 288 289 280 277 278 287 290 291 292 287 285 291 284 283 282 283 286 290 295 297 299 300 302 304 304
299 297 298 305 306 301 288 283 282 285 287 286 277 282 277 283 281 282 281 286 284 291 288 284 278 286 288 293 293 288 292 282 285 277 276 280 282 285 289 293 296 298 300 303 304
296 289 298 305 304 291 283 284 283 287 289 282 279 277 279 282 282 281 281 284 287 288 290 287 283 283 289 287 286 289 287 289 289 286 277 276 280 288 292 295 296 297 298 298 299
293 283 298 302 283 287 284 285 287 286 288 285 284 282 280 283 281 281 281 283 289 289 286 287 283 276 283 286 292 290 288 288 284 283 285 283 283 290 289 290 290 290 291 292 293
285 286 298 300 282 283 287 286 286 286 287 285 283 285 283 283 279 282 283 288 290 289 286 289 280 269 278 284 288 287 290 291 291 289 283 281 283 291 293 294 296 288 290 291 291
286 282 288 292 287 285 284 283 283 289 285 285 284 287 284 282 284 282 283 288 290 291 294 293 285 279 275 279 281 282 287 290 289 283 284 285 287 291 294 295 297 298 299 295 291
285 284 285 281 283 286 286 284 283 283 286 287 284 286 285 281 281 282 284 285 290 293 293 290 281 281 282 283 286 285 284 286 286 286 284 287 287 291 294 296 297 299 300 300 299
284 284 285 285 285 285 286 283 283 283 284 284 284 286 284 283 283 282 285 285 286 289 291 292 284 284 280 283 284 281 283 285 286 287 288 288 286 294 296 297 296 296 296 296 298
288 289 287 286 285 284 283 284 284 286 285 287 287 284 284 285 287 287 287 287 286 288 288 288 285 278 272 277 280 278 282 283 284 287 287 283 289 294 293 294 296 297 298 298 299
Wind_Speed
20 19 18 18 16 14 15 13 12 11 10 6 5 3 2 2 1 1 5 5 2 5 3 2 4 3 4 4 3 1 4 4 5 6 6 1 5 8 2 1 3 3 3 1 9
21 21 20 19 17 16 15 14 12 11 10 6 4 3 3 3 2 4 5 3 4 6 2 3 1 2 4 2 2 4 4 9 5 5 5 5 4 2 6 6 4 3 4 5 11
23 22 22 20 18 15 14 15 13 12 10 8 6 3 5 3 3 7 11 12 4 7 2 2 3 2 3 1 3 5 7 4 3 4 3 5 5 6 3 3 3 2 4 4 5
25 23 23 21 19 18 16 17 15 13 12 9 6 5 6 1 7 1 2 5 9 7 5 5 3 2 4 4 2 2 6 5 5 7 3 3 5 5 9 10 6 7 5 9 11
26 25 23 22 20 18 16 15 13 14 12 10 7 7 4 3 7 3 2 1 10 7 8 5 5 4 5 4 4 2 3 5 7 7 5 3 7 5 9 10 7 3 8 12 14
28 26 24 23 21 19 17 16 14 16 13 12 10 6 4 6 3 3 2 6 6 8 7 7 7 6 4 4 6 4 6 4 5 5 4 4 6 6 8 6 9 9 11 11 16
29 28 26 24 23 21 18 16 14 16 15 14 11 3 3 11 3 4 3 3 7 6 6 4 4 5 5 2 4 1 3 5 5 2 4 2 12 9 14 7 8 10 10 11 16
30 29 28 27 25 22 20 17 14 17 15 13 12 3 6 4 2 4 2 3 5 4 1 7 5 4 1 1 2 5 3 11 2 9 5 5 20 5 11 9 11 9 7 10 14
30 31 30 28 26 24 21 17 15 15 14 12 3 4 6 3 4 5 4 5 4 3 3 4 6 4 3 2 3 3 7 10 10 11 5 10 9 5 12 8 9 10 10 11 11
30 31 31 30 28 26 22 18 14 12 7 4 2 3 4 5 5 6 3 6 4 6 3 4 5 5 5 5 10 9 10 5 8 4 7 8 18 10 9 5 11 16 11 12 13
29 32 33 33 31 29 22 11 7 4 11 6 7 3 2 1 3 2 5 6 5 4 7 6 7 14 16 14 5 4 4 11 6 6 9 15 22 17 18 16 12 15 12 12 14
28 30 33 36 35 34 21 13 24 8 12 2 2 2 2 3 5 6 9 7 7 15 6 4 20 8 5 8 12 20 14 16 5 6 8 13 23 17 17 17 17 19 21 15 13
27 29 34 37 38 29 26 24 15 12 7 13 3 8 4 4 4 14 12 6 4 9 15 12 3 13 8 11 16 16 15 11 13 3 7 7 25 21 15 19 18 20 22 19 20
26 27 31 31 33 27 29 21 14 3 6 7 11 8 6 5 4 6 12 6 5 16 8 9 9 4 6 15 9 14 13 12 9 6 8 6 16 17 8 22 21 20 22 23 21
24 24 29 33 19 24 28 17 14 4 8 11 12 8 11 10 8 8 2 3 9 8 9 7 6 12 17 5 6 8 6 9 8 7 11 18 13 9 7 18 21 15 22 23 22
25 27 27 20 15 30 24 20 8 7 9 8 10 16 16 10 3 8 9 1 3 6 3 2 2 3 11 6 12 2 3 5 3 5 12 22 10 19 14 21 24 17 20 22 21
26 27 24 16 20 27 24 18 13 10 2 13 13 22 23 13 9 14 18 13 9 7 12 2 6 3 1 5 3 4 5 4 3 7 13 4 10 20 10 18 22 20 21 19 18
24 21 19 14 20 28 20 14 13 9 9 4 13 22 15 21 9 13 15 18 14 4 7 10 5 11 8 9 5 8 11 7 7 5 5 3 11 12 12 20 17 16 16 12 14
25 9 11 16 16 23 21 27 11 24 12 13 16 24 9 12 11 7 17 24 18 15 10 6 5 2 4 5 12 6 9 12 11 7 6 6 11 5 10 12 14 14 13 18 15
7 8 17 18 11 17 26 16 10 11 12 22 9 11 13 27 11 19 16 16 9 23 1 6 2 1 3 4 5 5 1 4 6 6 10 12 11 12 6 9 12 15 17 18 15
6 5 5 20 11 16 20 16 11 15 20 8 9 8 8 24 17 17 15 5 20 16 10 4 5 2 5 7 8 6 12 6 3 7 5 9 10 9 17 18 17 10 10 9 11
5 8 5 16 13 14 16 11 10 18 6 6 7 6 12 18 19 14 17 8 10 15 23 5 5 5 7 2 1 5 14 18 8 8 7 8 18 4 7 7 6 9 12 8 9
5 2 3 14 12 13 13 14 15 21 14 7 5 4 3 15 9 8 9 7 13 17 18 15 5 3 3 4 5 7 14 10 16 10 16 9 14 1 10 14 17 10 11 11 7
4 4 4 5 1 15 23 13 15 20 5 6 7 12 12 13 4 13 12 4 10 13 10 20 5 10 12 5 3 7 10 13 19 12 24 23 29 21 18 18 16 20 18 13 7
2 3 3 5 6 15 16 14 20 12 3 4 3 15 13 9 4 8 8 4 5 11 8 10 5 6 5 3 3 4 6 9 20 28 14 29 26 31 19 18 20 24 25 21 24
4 4 0 9 10 15 11 15 29 12 11 13 12 18 5 14 12 16 12 5 6 4 12 6 3 5 3 6 7 13 17 18 22 21 23 30 37 40 21 18 19 19 16 17 18
1 1 1 14 10 14 5 18 26 22 3 10 19 12 6 11 8 7 7 7 10 14 19 8 6 4 5 1 3 11 19 18 19 24 24 26 40 29 22 20 21 22 24 25 25
Wind_Direction
218 215 218 221 220 222 220 205 207 218 203 182 199 214 208 231 245 128 210 201 147 146 84 3 32 23 53 85 44 105 80 197 214 165 164 33 39 325 293 72 287 199 187 297 133
217 214 214 218 219 214 218 204 207 203 186 192 205 189 198 203 100 231 238 186 197 171 88 75 95 79 56 56 36 126 150 214 211 169 194 150 134 293 39 343 267 319 332 99 143
216 214 215 213 214 214 219 202 205 195 181 184 202 194 199 165 37 239 220 230 200 163 93 92 103 87 103 167 192 164 186 220 227 220 190 165 168 159 96 315 213 269 284 175 195
214 213 212 211 211 212 212 205 202 190 182 181 186 195 197 110 211 189 140 228 179 129 108 124 115 163 137 190 182 188 237 199 188 193 173 226 138 183 167 218 191 263 232 171 192
211 210 208 206 206 209 209 196 192 186 182 173 186 199 143 189 249 261 307 347 137 145 154 147 171 137 192 189 118 222 253 233 227 179 218 162 245 274 223 214 236 181 161 187 203
209 206 203 201 200 205 205 202 197 188 182 173 181 198 113 207 244 317 252 133 143 156 162 153 183 192 187 181 182 207 229 256 274 259 243 234 267 134 264 191 172 167 191 194 211
209 205 200 195 194 197 201 199 197 188 184 176 169 155 228 228 145 44 115 151 164 167 155 179 136 178 138 153 206 200 270 290 246 293 268 202 264 220 244 264 229 202 193 194 217
211 203 196 192 190 189 193 193 185 184 182 176 152 96 237 248 171 322 34 52 111 170 112 157 136 120 175 142 137 184 188 250 194 172 224 185 257 297 248 209 240 235 232 196 211
209 204 194 190 186 183 185 181 174 175 177 173 119 155 243 129 168 198 150 145 91 61 58 104 120 176 126 195 234 188 251 226 246 186 180 196 263 238 230 217 241 243 222 210 221
210 204 195 187 183 177 175 166 167 169 167 100 284 162 223 213 184 140 132 141 141 119 78 186 178 172 199 181 220 224 231 241 251 201 185 235 257 281 284 247 232 254 241 225 211
210 208 197 186 180 170 160 138 141 200 195 180 183 219 150 76 99 96 140 126 108 167 183 193 197 216 214 221 224 274 236 253 267 231 215 233 253 246 249 254 251 254 247 225 222
208 209 203 187 177 168 161 180 182 153 178 137 358 97 153 190 118 172 156 151 164 193 139 174 231 209 230 222 228 241 254 259 275 249 216 262 263 252 242 244 236 244 253 241 241
211 207 198 193 175 165 176 185 162 124 137 203 186 191 157 164 176 183 173 131 144 163 192 197 235 178 192 211 222 236 243 249 262 298 267 303 279 266 249 255 248 248 252 251 236
211 209 200 208 178 172 181 168 164 129 111 205 196 235 174 147 237 174 190 145 172 196 140 231 250 226 214 236 217 253 221 250 270 261 267 151 285 261 253 259 246 238 240 242 233
208 212 202 199 175 181 169 156 145 77 202 178 169 161 153 169 137 188 155 134 168 166 163 214 195 215 236 172 173 272 262 266 267 268 295 260 268 285 247 261 254 243 243 244 240
216 213 207 205 219 161 155 149 101 152 210 161 146 165 158 179 165 130 180 130 146 156 106 181 286 199 230 180 198 247 36 321 257 253 254 255 233 268 237 254 264 254 243 241 234
211 210 206 208 220 150 153 150 177 197 131 162 171 170 170 167 148 172 179 188 167 152 201 118 215 152 222 153 95 149 161 273 257 206 247 206 210 244 262 245 245 248 251 245 239
196 210 217 213 205 165 152 174 201 125 187 173 155 161 172 152 175 181 176 193 215 174 133 185 290 163 174 205 152 199 195 212 214 229 279 169 236 251 225 235 243 245 252 259 236
184 201 218 205 190 172 156 188 181 157 162 132 127 160 156 179 157 153 195 203 201 192 168 147 256 66 110 135 171 189 225 232 277 259 289 242 283 289 231 239 238 255 268 258 245
165 189 226 201 226 200 170 170 180 141 121 135 144 173 166 179 153 184 176 197 204 198 139 200 137 187 132 108 239 182 232 194 222 245 239 254 260 247 303 268 255 244 244 256 264
164 195 210 188 205 190 203 158 165 159 138 156 154 128 177 174 182 188 195 226 189 183 173 170 109 139 129 202 181 184 231 243 229 227 220 263 258 198 210 230 254 274 261 277 276
159 203 198 161 189 207 191 142 126 161 120 153 113 115 159 166 174 180 202 218 181 153 195 175 125 176 195 122 240 241 224 214 239 231 239 271 262 321 254 250 274 275 282 274 262
133 144 232 175 190 207 158 148 171 156 170 159 130 128 154 158 149 167 180 208 168 174 176 175 206 83 346 265 205 216 220 233 240 272 259 263 264 303 266 269 276 256 267 279 270
133 151 206 169 118 174 151 144 149 167 102 94 101 117 110 161 18 173 165 172 171 181 167 162 167 186 206 146 145 191 210 224 231 248 250 245 263 249 272 276 288 289 286 287 285
167 189 203 147 193 158 163 140 146 144 66 151 49 158 139 137 103 166 143 109 76 175 167 169 217 202 252 206 249 219 241 238 230 243 246 259 257 264 251 269 281 282 284 286 287
146 167 350 127 154 130 153 160 157 147 149 182 164 169 152 155 175 168 137 137 163 131 171 189 177 150 230 210 248 260 245 226 236 252 258 262 273 261 283 281 283 278 290 286 283
355 38 41 153 148 155 149 160 164 147 22 167 145 137 101 150 128 128 104 106 158 169 188 174 156 119 266 230 315 270 238 226 234 236 231 251 253 271 261 256 260 272 269 270 277